OCN3VU EDDM-LGIR

Flight info

Callsign OCN3VU
Flight time 2h 18m
Altitude 37000
Route VAVOR3S VAVOR M867 RADIZ DCT REKTI DCT NEMEK DCT ELTIB DCT PINDO DCT KEA UL607 GIVIS T514 XAVIS
Aircraft A320/M-SDE3FGHIRWY/LB1

Departure

Time 2026-05-05 12:24
Airport Munich Airport (EDDM)

Arrival

Time 2026-05-05 14:42
Airport Heraklion International Nikos Kazantzakis Airport (LGIR)
Time Latitude Longitude Altitude Speed Heading
2026-05-05 11:39 48.35073 11.80820 1486 ft 0 kts 173°
2026-05-05 12:15 48.35074 11.80820 1485 ft 1 kts 173°
2026-05-05 12:16 48.35087 11.80817 1472 ft 3 kts 173°
2026-05-05 12:16 48.35108 11.80814 1475 ft 3 kts 173°
2026-05-05 12:16 48.35128 11.80810 1479 ft 3 kts 173°
2026-05-05 12:16 48.35147 11.80809 1472 ft 3 kts 201°
2026-05-05 12:17 48.35161 11.80824 1478 ft 3 kts 246°
2026-05-05 12:17 48.35165 11.80842 1471 ft 1 kts 263°
2026-05-05 12:17 48.35167 11.80864 1474 ft 1 kts 263°
2026-05-05 12:17 48.35167 11.80867 1474 ft 0 kts 263°
2026-05-05 12:19 48.35166 11.80855 1471 ft 6 kts 263°
2026-05-05 12:19 48.35156 11.80735 1485 ft 13 kts 263°
2026-05-05 12:20 48.35146 11.80596 1485 ft 15 kts 263°
2026-05-05 12:20 48.35133 11.80433 1485 ft 17 kts 263°
2026-05-05 12:20 48.35115 11.80249 1485 ft 18 kts 262°
2026-05-05 12:20 48.35098 11.80054 1473 ft 19 kts 264°
2026-05-05 12:21 48.35086 11.79885 1475 ft 17 kts 263°
2026-05-05 12:21 48.35071 11.79719 1480 ft 12 kts 257°
2026-05-05 12:21 48.34997 11.79670 1485 ft 15 kts 174°
2026-05-05 12:21 48.34884 11.79689 1485 ft 16 kts 173°
2026-05-05 12:22 48.34809 11.79771 1479 ft 14 kts 93°
2026-05-05 12:22 48.34821 11.79910 1485 ft 13 kts 83°
2026-05-05 12:22 48.34830 11.80050 1485 ft 15 kts 84°
2026-05-05 12:22 48.34799 11.80187 1479 ft 14 kts 128°
2026-05-05 12:23 48.34711 11.80246 1483 ft 19 kts 172°
2026-05-05 12:23 48.34553 11.80278 1484 ft 18 kts 175°
2026-05-05 12:23 48.34461 11.80180 1482 ft 20 kts 256°
2026-05-05 12:23 48.34426 11.79768 1485 ft 72 kts 264°
2026-05-05 12:24 48.34342 11.78692 1486 ft 132 kts 263°
2026-05-05 12:24 48.34218 11.77073 1522 ft 175 kts 263°
2026-05-05 12:24 48.34027 11.75197 2048 ft 187 kts 261°
2026-05-05 12:24 48.33807 11.73252 2757 ft 189 kts 260°
2026-05-05 12:25 48.33422 11.71415 3427 ft 188 kts 238°
2026-05-05 12:25 48.32374 11.70223 3917 ft 194 kts 192°
2026-05-05 12:25 48.31021 11.70231 4456 ft 198 kts 174°
2026-05-05 12:25 48.29614 11.70471 4906 ft 208 kts 169°
2026-05-05 12:26 48.28256 11.71228 5435 ft 215 kts 151°
2026-05-05 12:26 48.26966 11.72568 5744 ft 236 kts 144°
2026-05-05 12:26 48.25550 11.74053 6147 ft 259 kts 146°
2026-05-05 12:26 48.24041 11.75682 6679 ft 273 kts 142°
2026-05-05 12:27 48.22558 11.77515 7536 ft 278 kts 140°
2026-05-05 12:27 48.21102 11.79394 8358 ft 282 kts 140°
2026-05-05 12:27 48.19600 11.81363 9269 ft 285 kts 139°
2026-05-05 12:27 48.18098 11.83329 10095 ft 289 kts 140°
2026-05-05 12:28 48.16524 11.85377 10406 ft 312 kts 140°
2026-05-05 12:28 48.14824 11.87575 10746 ft 331 kts 140°
2026-05-05 12:28 48.13060 11.89851 11353 ft 339 kts 140°
2026-05-05 12:28 48.11263 11.92165 12043 ft 343 kts 141°
2026-05-05 12:29 48.09441 11.94504 12756 ft 346 kts 141°
2026-05-05 12:29 48.07605 11.96861 13461 ft 350 kts 141°
2026-05-05 12:29 48.05746 11.99246 14103 ft 353 kts 141°
2026-05-05 12:29 48.03958 12.01539 14720 ft 356 kts 141°
2026-05-05 12:30 48.02072 12.03956 15381 ft 358 kts 141°
2026-05-05 12:30 48.00174 12.06383 16046 ft 360 kts 142°
2026-05-05 12:30 47.98266 12.08818 16697 ft 362 kts 142°
2026-05-05 12:30 47.96339 12.11271 17326 ft 365 kts 142°
2026-05-05 12:31 47.94400 12.13741 17962 ft 367 kts 142°
2026-05-05 12:31 47.92449 12.16222 18520 ft 370 kts 142°
2026-05-05 12:31 47.90488 12.18714 19047 ft 372 kts 142°
2026-05-05 12:31 47.88509 12.21223 19562 ft 375 kts 142°
2026-05-05 12:32 47.86514 12.23752 20077 ft 378 kts 142°
2026-05-05 12:32 47.84523 12.26272 20563 ft 381 kts 142°
2026-05-05 12:32 47.82498 12.28833 21039 ft 384 kts 142°
2026-05-05 12:32 47.80458 12.31414 21536 ft 387 kts 142°
2026-05-05 12:33 47.78400 12.34015 22016 ft 390 kts 142°
2026-05-05 12:33 47.76322 12.36638 22495 ft 393 kts 142°
2026-05-05 12:33 47.74233 12.39275 22965 ft 396 kts 142°
2026-05-05 12:33 47.72122 12.41935 23411 ft 399 kts 142°
2026-05-05 12:34 47.70000 12.44606 23780 ft 402 kts 142°
2026-05-05 12:34 47.67861 12.47290 24152 ft 404 kts 142°
2026-05-05 12:34 47.65703 12.49993 24529 ft 406 kts 142°
2026-05-05 12:34 47.63510 12.52737 24895 ft 409 kts 143°
2026-05-05 12:35 47.61367 12.55440 25251 ft 411 kts 142°
2026-05-05 12:35 47.59217 12.58258 25624 ft 414 kts 141°
2026-05-05 12:35 47.57077 12.61137 25986 ft 416 kts 140°
2026-05-05 12:35 47.54943 12.64040 26330 ft 418 kts 140°
2026-05-05 12:36 47.52796 12.66958 26670 ft 421 kts 140°
2026-05-05 12:36 47.50629 12.69885 27019 ft 422 kts 140°
2026-05-05 12:36 47.48449 12.72807 27349 ft 424 kts 141°
2026-05-05 12:36 47.46247 12.75736 27694 ft 427 kts 141°
2026-05-05 12:37 47.44031 12.78671 28058 ft 429 kts 141°
2026-05-05 12:37 47.41804 12.81615 28413 ft 431 kts 141°
2026-05-05 12:37 47.39566 12.84576 28738 ft 433 kts 141°
2026-05-05 12:37 47.37319 12.87550 29060 ft 435 kts 141°
2026-05-05 12:38 47.35063 12.90533 29374 ft 437 kts 141°
2026-05-05 12:38 47.32798 12.93529 29681 ft 438 kts 141°
2026-05-05 12:38 47.30522 12.96535 29969 ft 440 kts 141°
2026-05-05 12:38 47.28235 12.99546 30233 ft 442 kts 141°
2026-05-05 12:39 47.25937 13.02571 30490 ft 444 kts 141°
2026-05-05 12:39 47.23630 13.05604 30737 ft 446 kts 141°
2026-05-05 12:39 47.21314 13.08641 31033 ft 446 kts 141°
2026-05-05 12:39 47.18999 13.11676 31382 ft 445 kts 141°
2026-05-05 12:40 47.16691 13.14699 31718 ft 445 kts 141°
2026-05-05 12:40 47.14381 13.17720 32054 ft 444 kts 141°
2026-05-05 12:40 47.12073 13.20731 32389 ft 444 kts 141°
2026-05-05 12:40 47.09762 13.23741 32738 ft 444 kts 141°
2026-05-05 12:41 47.07453 13.26745 33045 ft 443 kts 141°
2026-05-05 12:41 47.05146 13.29746 33356 ft 443 kts 141°
2026-05-05 12:41 47.02835 13.32751 33689 ft 443 kts 141°
2026-05-05 12:41 47.00529 13.35746 33996 ft 443 kts 142°
2026-05-05 12:42 46.98222 13.38735 34264 ft 443 kts 142°
2026-05-05 12:42 46.95914 13.41725 34528 ft 443 kts 141°
2026-05-05 12:42 46.93610 13.44710 34754 ft 443 kts 142°
2026-05-05 12:42 46.91297 13.47700 35015 ft 444 kts 142°
2026-05-05 12:43 46.88981 13.50685 35265 ft 443 kts 142°
2026-05-05 12:43 46.86668 13.53663 35482 ft 444 kts 142°
2026-05-05 12:43 46.84350 13.56648 35694 ft 444 kts 142°
2026-05-05 12:43 46.82026 13.59632 35908 ft 445 kts 142°
2026-05-05 12:44 46.79698 13.62619 36121 ft 446 kts 142°
2026-05-05 12:44 46.77372 13.65603 36316 ft 446 kts 142°
2026-05-05 12:44 46.75036 13.68597 36513 ft 446 kts 142°
2026-05-05 12:44 46.72702 13.71583 36713 ft 447 kts 142°
2026-05-05 12:45 46.70364 13.74571 36903 ft 448 kts 142°
2026-05-05 12:45 46.68018 13.77569 36974 ft 448 kts 142°
2026-05-05 12:45 46.63332 13.83548 36979 ft 448 kts 142°
2026-05-05 12:46 46.58637 13.89508 36978 ft 448 kts 142°
2026-05-05 12:46 46.54063 13.95680 36981 ft 450 kts 139°
2026-05-05 12:47 46.49665 14.02089 36980 ft 450 kts 138°
2026-05-05 12:47 46.45238 14.08520 36980 ft 450 kts 139°
2026-05-05 12:48 46.40728 14.14911 36980 ft 451 kts 139°
2026-05-05 12:48 46.36225 14.21228 37008 ft 451 kts 139°
2026-05-05 12:49 46.32482 14.26481 37014 ft 451 kts 139°
2026-05-05 12:49 46.27976 14.32801 37021 ft 451 kts 139°
2026-05-05 12:50 46.23464 14.39108 37019 ft 451 kts 139°
2026-05-05 12:50 46.18946 14.45409 37020 ft 452 kts 139°
2026-05-05 12:51 46.14431 14.51711 37024 ft 452 kts 139°
2026-05-05 12:51 46.09901 14.58015 37020 ft 452 kts 139°
2026-05-05 12:52 46.05367 14.64300 37018 ft 452 kts 139°
2026-05-05 12:52 46.00860 14.70541 37018 ft 452 kts 139°
2026-05-05 12:53 45.96311 14.76804 37014 ft 452 kts 139°
2026-05-05 12:53 45.91767 14.83056 37013 ft 452 kts 139°
2026-05-05 12:54 45.84942 14.92429 37012 ft 453 kts 139°
2026-05-05 12:55 45.80441 14.98585 37016 ft 453 kts 139°
2026-05-05 12:55 45.75885 15.04810 37017 ft 453 kts 139°
2026-05-05 12:56 45.71341 15.11001 37013 ft 453 kts 139°
2026-05-05 12:56 45.66776 15.17215 37014 ft 453 kts 139°
2026-05-05 12:57 45.62208 15.23410 37012 ft 453 kts 139°
2026-05-05 12:57 45.57625 15.29580 37010 ft 453 kts 140°
2026-05-05 12:58 45.52922 15.35574 37013 ft 452 kts 142°
2026-05-05 12:58 45.48115 15.41363 37024 ft 452 kts 143°
2026-05-05 12:59 45.43308 15.47151 37018 ft 452 kts 142°
2026-05-05 12:59 45.38523 15.52985 37030 ft 453 kts 142°
2026-05-05 13:00 45.31352 15.61749 37025 ft 452 kts 142°
2026-05-05 13:01 45.21802 15.73321 37021 ft 453 kts 142°
2026-05-05 13:01 45.17003 15.79110 37026 ft 453 kts 142°
2026-05-05 13:02 45.12204 15.84901 37024 ft 453 kts 142°
2026-05-05 13:02 45.07411 15.90684 37026 ft 453 kts 142°
2026-05-05 13:03 45.02605 15.96455 37017 ft 453 kts 142°
2026-05-05 13:03 44.97806 16.02211 37015 ft 453 kts 142°
2026-05-05 13:04 44.92996 16.07959 37017 ft 453 kts 142°
2026-05-05 13:04 44.88167 16.13704 37018 ft 454 kts 143°
2026-05-05 13:05 44.83343 16.19434 37011 ft 453 kts 143°
2026-05-05 13:05 44.78522 16.25167 37013 ft 454 kts 143°
2026-05-05 13:06 44.73696 16.30894 37017 ft 454 kts 143°
2026-05-05 13:06 44.68852 16.36602 37016 ft 454 kts 143°
2026-05-05 13:07 44.64005 16.42304 37013 ft 454 kts 143°
2026-05-05 13:07 44.59160 16.48009 37014 ft 455 kts 143°
2026-05-05 13:08 44.54306 16.53715 37016 ft 455 kts 143°
2026-05-05 13:08 44.49448 16.59405 37024 ft 455 kts 143°
2026-05-05 13:09 44.44591 16.65078 37025 ft 455 kts 143°
2026-05-05 13:09 44.39718 16.70752 37033 ft 455 kts 143°
2026-05-05 13:10 44.34848 16.76417 37033 ft 455 kts 143°
2026-05-05 13:10 44.29972 16.82077 37035 ft 456 kts 143°
2026-05-05 13:11 44.25111 16.87762 37035 ft 456 kts 143°
2026-05-05 13:11 44.20257 16.93461 37038 ft 457 kts 143°
2026-05-05 13:12 44.15394 16.99165 37037 ft 457 kts 143°
2026-05-05 13:12 44.10552 17.04825 37039 ft 458 kts 143°
2026-05-05 13:13 44.05664 17.10502 37037 ft 458 kts 143°
2026-05-05 13:13 44.00763 17.16178 37040 ft 459 kts 143°
2026-05-05 13:14 43.95853 17.21863 37038 ft 459 kts 143°
2026-05-05 13:14 43.90941 17.27544 37044 ft 460 kts 143°
2026-05-05 13:15 43.86019 17.33219 37046 ft 460 kts 143°
2026-05-05 13:15 43.81088 17.38889 37051 ft 461 kts 143°
2026-05-05 13:16 43.76145 17.44571 37051 ft 461 kts 143°
2026-05-05 13:16 43.71206 17.50233 37056 ft 462 kts 143°
2026-05-05 13:17 43.66255 17.55888 37057 ft 462 kts 143°
2026-05-05 13:17 43.61318 17.61505 37056 ft 462 kts 143°
2026-05-05 13:18 43.56351 17.67144 37060 ft 463 kts 143°
2026-05-05 13:18 43.51378 17.72790 37067 ft 463 kts 143°
2026-05-05 13:19 43.46395 17.78444 37068 ft 464 kts 143°
2026-05-05 13:19 43.41413 17.84086 37071 ft 464 kts 144°
2026-05-05 13:20 43.36413 17.89726 37070 ft 465 kts 144°
2026-05-05 13:20 43.31412 17.95346 37075 ft 465 kts 144°
2026-05-05 13:21 43.26432 18.00929 37068 ft 465 kts 144°
2026-05-05 13:21 43.21411 18.06544 37069 ft 466 kts 144°
2026-05-05 13:22 43.16385 18.12170 37068 ft 466 kts 144°
2026-05-05 13:22 43.11354 18.17781 37073 ft 467 kts 144°
2026-05-05 13:23 43.06301 18.23402 37073 ft 467 kts 144°
2026-05-05 13:23 43.01256 18.29017 37077 ft 468 kts 144°
2026-05-05 13:24 42.96186 18.34634 37072 ft 468 kts 144°
2026-05-05 13:24 42.91255 18.40090 37079 ft 469 kts 144°
2026-05-05 13:25 42.86177 18.45687 37080 ft 470 kts 144°
2026-05-05 13:25 42.81087 18.51292 37086 ft 470 kts 144°
2026-05-05 13:26 42.75986 18.56897 37090 ft 471 kts 144°
2026-05-05 13:26 42.70882 18.62499 37088 ft 472 kts 144°
2026-05-05 13:27 42.65763 18.68096 37098 ft 472 kts 144°
2026-05-05 13:27 42.60640 18.73681 37101 ft 473 kts 144°
2026-05-05 13:28 42.55503 18.79273 37110 ft 474 kts 144°
2026-05-05 13:28 42.50349 18.84870 37118 ft 474 kts 145°
2026-05-05 13:29 42.45313 18.90332 37114 ft 475 kts 145°
2026-05-05 13:29 42.40181 18.95891 37112 ft 475 kts 145°
2026-05-05 13:30 42.35009 19.01473 37092 ft 476 kts 145°
2026-05-05 13:30 42.29830 19.07047 37091 ft 477 kts 145°
2026-05-05 13:31 42.24634 19.12627 37093 ft 477 kts 145°
2026-05-05 13:31 42.19429 19.18211 37092 ft 478 kts 145°
2026-05-05 13:32 42.15096 19.22854 37093 ft 479 kts 145°
2026-05-05 13:32 42.08992 19.29371 37091 ft 480 kts 145°
2026-05-05 13:33 42.03755 19.34945 37088 ft 480 kts 145°
2026-05-05 13:33 41.99380 19.39599 37090 ft 481 kts 145°
2026-05-05 13:34 41.94137 19.45173 37090 ft 482 kts 145°
2026-05-05 13:34 41.88868 19.50758 37096 ft 482 kts 145°
2026-05-05 13:35 41.83598 19.56332 37092 ft 483 kts 145°
2026-05-05 13:35 41.78306 19.61909 37096 ft 484 kts 145°
2026-05-05 13:36 41.72968 19.67519 37098 ft 485 kts 145°
2026-05-05 13:36 41.67829 19.72911 37100 ft 486 kts 145°
2026-05-05 13:37 41.62511 19.78493 37094 ft 486 kts 145°
2026-05-05 13:37 41.57189 19.84070 37099 ft 487 kts 145°
2026-05-05 13:38 41.51846 19.89641 37096 ft 487 kts 145°
2026-05-05 13:38 41.46496 19.95199 37093 ft 488 kts 145°
2026-05-05 13:39 41.41174 20.00730 37092 ft 488 kts 145°
2026-05-05 13:39 41.35775 20.06329 37090 ft 489 kts 145°
2026-05-05 13:40 41.30405 20.11886 37083 ft 489 kts 145°
2026-05-05 13:40 41.25027 20.17433 37086 ft 490 kts 145°
2026-05-05 13:41 41.19645 20.22981 37084 ft 490 kts 145°
2026-05-05 13:41 41.14243 20.28533 37087 ft 490 kts 145°
2026-05-05 13:42 41.08840 20.34067 37086 ft 490 kts 145°
2026-05-05 13:42 41.03441 20.39589 37099 ft 491 kts 145°
2026-05-05 13:43 40.98026 20.45127 37084 ft 491 kts 145°
2026-05-05 13:43 40.92580 20.50683 37078 ft 491 kts 145°
2026-05-05 13:44 40.87155 20.56191 37077 ft 492 kts 145°
2026-05-05 13:44 40.81716 20.61702 37081 ft 492 kts 145°
2026-05-05 13:45 40.76284 20.67203 37063 ft 493 kts 145°
2026-05-05 13:45 40.70832 20.72715 37072 ft 493 kts 145°
2026-05-05 13:46 40.65370 20.78213 37060 ft 494 kts 145°
2026-05-05 13:46 40.59893 20.83718 37067 ft 495 kts 145°
2026-05-05 13:47 40.54429 20.89214 37066 ft 495 kts 145°
2026-05-05 13:47 40.48952 20.94701 37067 ft 495 kts 144°
2026-05-05 13:48 40.43813 21.00749 37058 ft 497 kts 139°
2026-05-05 13:48 40.38733 21.06902 37064 ft 497 kts 139°
2026-05-05 13:49 40.33639 21.13037 37061 ft 497 kts 139°
2026-05-05 13:49 40.28541 21.19162 37061 ft 497 kts 139°
2026-05-05 13:50 40.23439 21.25283 37056 ft 497 kts 139°
2026-05-05 13:50 40.18341 21.31395 37057 ft 497 kts 139°
2026-05-05 13:51 40.13244 21.37501 37061 ft 497 kts 139°
2026-05-05 13:51 40.08140 21.43602 37064 ft 497 kts 139°
2026-05-05 13:52 40.03031 21.49686 37065 ft 497 kts 139°
2026-05-05 13:52 39.97913 21.55760 37063 ft 497 kts 139°
2026-05-05 13:53 39.92801 21.61815 37059 ft 497 kts 139°
2026-05-05 13:53 39.87683 21.67874 37060 ft 497 kts 139°
2026-05-05 13:54 39.82569 21.73918 37057 ft 497 kts 139°
2026-05-05 13:54 39.77448 21.79955 37048 ft 497 kts 139°
2026-05-05 13:55 39.72290 21.86020 37053 ft 496 kts 139°
2026-05-05 13:55 39.67162 21.92038 37049 ft 497 kts 139°
2026-05-05 13:56 39.62037 21.98047 37041 ft 497 kts 139°
2026-05-05 13:56 39.56899 22.04053 37041 ft 497 kts 139°
2026-05-05 13:57 39.51723 22.10081 37034 ft 497 kts 139°
2026-05-05 13:57 39.46573 22.16063 37029 ft 497 kts 139°
2026-05-05 13:58 39.41419 22.22047 37038 ft 498 kts 139°
2026-05-05 13:58 39.36265 22.28031 37041 ft 498 kts 139°
2026-05-05 13:59 39.28486 22.37026 37038 ft 498 kts 139°
2026-05-05 14:00 39.21607 22.44946 37034 ft 498 kts 139°
2026-05-05 14:00 39.15548 22.51899 37031 ft 499 kts 139°
2026-05-05 14:01 39.10365 22.57849 37032 ft 499 kts 139°
2026-05-05 14:01 39.05181 22.63789 37038 ft 499 kts 139°
2026-05-05 14:02 39.00863 22.68728 37036 ft 499 kts 138°
2026-05-05 14:02 38.95668 22.74660 37041 ft 499 kts 139°
2026-05-05 14:03 38.90463 22.80570 37041 ft 500 kts 139°
2026-05-05 14:03 38.85256 22.86474 37049 ft 500 kts 139°
2026-05-05 14:04 38.80017 22.92423 37052 ft 499 kts 139°
2026-05-05 14:04 38.74806 22.98313 37056 ft 499 kts 139°
2026-05-05 14:05 38.69591 23.04196 37052 ft 499 kts 139°
2026-05-05 14:05 38.64374 23.10065 37052 ft 499 kts 139°
2026-05-05 14:06 38.59158 23.15931 37061 ft 499 kts 139°
2026-05-05 14:06 38.53940 23.21791 37059 ft 499 kts 139°
2026-05-05 14:07 38.48716 23.27647 37058 ft 499 kts 139°
2026-05-05 14:07 38.43496 23.33481 37055 ft 499 kts 139°
2026-05-05 14:08 38.38269 23.39309 37057 ft 499 kts 139°
2026-05-05 14:08 38.33031 23.45132 37050 ft 499 kts 139°
2026-05-05 14:09 38.27794 23.50947 37045 ft 499 kts 139°
2026-05-05 14:09 38.22549 23.56761 37040 ft 500 kts 139°
2026-05-05 14:10 38.17311 23.62566 37037 ft 500 kts 139°
2026-05-05 14:10 38.12550 23.67826 37033 ft 499 kts 139°
2026-05-05 14:11 38.07444 23.73452 37035 ft 500 kts 139°
2026-05-05 14:11 38.02187 23.79231 37061 ft 500 kts 139°
2026-05-05 14:12 37.96931 23.84996 37064 ft 499 kts 139°
2026-05-05 14:12 37.91718 23.90719 37060 ft 499 kts 139°
2026-05-05 14:13 37.86460 23.96468 37061 ft 499 kts 139°
2026-05-05 14:13 37.81194 24.02203 37060 ft 499 kts 139°
2026-05-05 14:14 37.75931 24.07944 37060 ft 500 kts 139°
2026-05-05 14:14 37.70628 24.13712 37064 ft 500 kts 139°
2026-05-05 14:15 37.65349 24.19435 37067 ft 500 kts 139°
2026-05-05 14:15 37.60074 24.25143 37069 ft 500 kts 139°
2026-05-05 14:16 37.54675 24.30669 37057 ft 499 kts 148°
2026-05-05 14:16 37.48792 24.35318 37069 ft 499 kts 149°
2026-05-05 14:17 37.42897 24.39948 37071 ft 499 kts 149°
2026-05-05 14:17 37.37003 24.44571 37065 ft 500 kts 149°
2026-05-05 14:18 37.31105 24.49190 37068 ft 500 kts 149°
2026-05-05 14:18 37.25201 24.53797 37076 ft 500 kts 149°
2026-05-05 14:19 37.19291 24.58402 37080 ft 500 kts 149°
2026-05-05 14:19 37.13385 24.62995 37081 ft 500 kts 149°
2026-05-05 14:20 37.07478 24.67585 36749 ft 500 kts 149°
2026-05-05 14:20 37.04518 24.69881 36116 ft 501 kts 149°
2026-05-05 14:20 37.01594 24.72144 35503 ft 501 kts 149°
2026-05-05 14:21 36.98631 24.74437 34891 ft 502 kts 149°
2026-05-05 14:21 36.95661 24.76735 34285 ft 502 kts 149°
2026-05-05 14:21 36.92691 24.79031 33638 ft 501 kts 149°
2026-05-05 14:21 36.89730 24.81321 32978 ft 499 kts 149°
2026-05-05 14:22 36.86787 24.83605 32325 ft 497 kts 149°
2026-05-05 14:22 36.83863 24.85873 31689 ft 495 kts 149°
2026-05-05 14:22 36.80939 24.88138 31071 ft 493 kts 149°
2026-05-05 14:22 36.78026 24.90389 30460 ft 491 kts 149°
2026-05-05 14:23 36.75088 24.92652 29799 ft 489 kts 149°
2026-05-05 14:23 36.72202 24.94872 29102 ft 487 kts 149°
2026-05-05 14:23 36.69323 24.97085 28421 ft 485 kts 149°
2026-05-05 14:23 36.66463 24.99282 27759 ft 482 kts 149°
2026-05-05 14:24 36.63618 25.01463 27225 ft 477 kts 149°
2026-05-05 14:24 36.60825 25.03598 26847 ft 468 kts 149°
2026-05-05 14:24 36.58066 25.05705 26466 ft 460 kts 149°
2026-05-05 14:24 36.55362 25.07773 26091 ft 452 kts 149°
2026-05-05 14:25 36.52700 25.09809 25579 ft 449 kts 149°
2026-05-05 14:25 36.50042 25.11842 24982 ft 448 kts 149°
2026-05-05 14:25 36.47392 25.13869 24399 ft 447 kts 149°
2026-05-05 14:25 36.44749 25.15887 23828 ft 446 kts 149°
2026-05-05 14:26 36.42108 25.17901 23181 ft 444 kts 149°
2026-05-05 14:26 36.39509 25.19881 22514 ft 443 kts 149°
2026-05-05 14:26 36.36870 25.21889 21850 ft 433 kts 149°
2026-05-05 14:26 36.34338 25.23815 21213 ft 420 kts 149°
2026-05-05 14:27 36.31909 25.25658 20609 ft 409 kts 149°
2026-05-05 14:27 36.29520 25.27468 20105 ft 398 kts 149°
2026-05-05 14:27 36.27145 25.29172 19631 ft 393 kts 157°
2026-05-05 14:27 36.24548 25.30137 19155 ft 387 kts 175°
2026-05-05 14:28 36.21884 25.30481 18686 ft 385 kts 178°
2026-05-05 14:28 36.19225 25.30791 18202 ft 384 kts 178°
2026-05-05 14:28 36.16554 25.31091 17668 ft 384 kts 178°
2026-05-05 14:28 36.13897 25.31381 17145 ft 383 kts 178°
2026-05-05 14:29 36.11251 25.31670 16619 ft 382 kts 178°
2026-05-05 14:29 36.08603 25.31962 16127 ft 381 kts 177°
2026-05-05 14:29 36.05962 25.32256 15624 ft 381 kts 177°
2026-05-05 14:29 36.03326 25.32552 15130 ft 380 kts 177°
2026-05-05 14:30 36.00699 25.32850 14663 ft 378 kts 176°
2026-05-05 14:30 35.98101 25.33146 14307 ft 373 kts 176°
2026-05-05 14:30 35.95523 25.33436 13956 ft 369 kts 176°
2026-05-05 14:30 35.92997 25.33718 13557 ft 357 kts 176°
2026-05-05 14:31 35.90574 25.33993 13156 ft 342 kts 176°
2026-05-05 14:31 35.88249 25.34257 12773 ft 330 kts 176°
2026-05-05 14:31 35.85990 25.34513 12389 ft 324 kts 176°
2026-05-05 14:31 35.83763 25.34762 12001 ft 318 kts 176°
2026-05-05 14:32 35.81594 25.35005 11632 ft 307 kts 176°
2026-05-05 14:32 35.79498 25.35239 11262 ft 298 kts 176°
2026-05-05 14:32 35.77474 25.35462 10899 ft 289 kts 176°
2026-05-05 14:32 35.75491 25.35682 10535 ft 281 kts 176°
2026-05-05 14:33 35.73560 25.35898 10176 ft 276 kts 176°
2026-05-05 14:33 35.71645 25.36110 9810 ft 277 kts 176°
2026-05-05 14:33 35.69736 25.36323 9492 ft 275 kts 176°
2026-05-05 14:33 35.67838 25.36536 9178 ft 273 kts 175°
2026-05-05 14:34 35.65951 25.36747 8863 ft 271 kts 175°
2026-05-05 14:34 35.64078 25.36956 8559 ft 270 kts 175°
2026-05-05 14:34 35.62214 25.37165 8251 ft 268 kts 175°
2026-05-05 14:34 35.60359 25.37374 7953 ft 267 kts 175°
2026-05-05 14:35 35.58511 25.37581 7652 ft 266 kts 175°
2026-05-05 14:35 35.57284 25.37716 7455 ft 266 kts 175°
2026-05-05 14:35 35.54851 25.37983 7062 ft 265 kts 174°
2026-05-05 14:35 35.53019 25.38188 6771 ft 264 kts 174°
2026-05-05 14:36 35.51835 25.38321 6581 ft 263 kts 174°
2026-05-05 14:36 35.49974 25.38526 6272 ft 262 kts 174°
2026-05-05 14:36 35.48168 25.38725 5964 ft 259 kts 174°
2026-05-05 14:36 35.46380 25.38924 5666 ft 257 kts 174°
2026-05-05 14:37 35.44613 25.38942 5349 ft 250 kts 187°
2026-05-05 14:37 35.42941 25.38540 5056 ft 241 kts 193°
2026-05-05 14:37 35.41329 25.38105 4752 ft 233 kts 193°
2026-05-05 14:37 35.39763 25.37688 4445 ft 227 kts 194°
2026-05-05 14:38 35.38234 25.37282 4142 ft 223 kts 194°
2026-05-05 14:38 35.36736 25.36885 3842 ft 218 kts 194°
2026-05-05 14:38 35.35275 25.36497 3540 ft 210 kts 195°
2026-05-05 14:38 35.33980 25.35922 3250 ft 189 kts 219°
2026-05-05 14:39 35.33154 25.34759 2961 ft 179 kts 249°
2026-05-05 14:39 35.32910 25.33318 2667 ft 172 kts 276°
2026-05-05 14:39 35.33009 25.31877 2406 ft 167 kts 279°
2026-05-05 14:39 35.33109 25.30471 2151 ft 164 kts 278°
2026-05-05 14:40 35.33206 25.29108 1932 ft 155 kts 279°
2026-05-05 14:40 35.33295 25.27826 1691 ft 147 kts 278°
2026-05-05 14:40 35.33377 25.26615 1452 ft 139 kts 278°
2026-05-05 14:40 35.33450 25.25452 1240 ft 136 kts 279°
2026-05-05 14:41 35.33528 25.24314 1054 ft 133 kts 279°
2026-05-05 14:41 35.33615 25.23187 838 ft 132 kts 278°
2026-05-05 14:41 35.33682 25.22069 639 ft 131 kts 278°
2026-05-05 14:41 35.33745 25.20959 492 ft 131 kts 281°
2026-05-05 14:42 35.33830 25.19857 299 ft 130 kts 282°
2026-05-05 14:42 35.33921 25.18765 107 ft 125 kts 279°
2026-05-05 14:42 35.33990 25.17870 93 ft 71 kts 273°
2026-05-05 14:42 35.34016 25.17433 91 ft 43 kts 275°
2026-05-05 14:43 35.34025 25.17204 90 ft 23 kts 263°
2026-05-05 14:43 35.33978 25.17069 91 ft 12 kts 242°
2026-05-05 14:43 35.33943 25.17099 90 ft 10 kts 101°
2026-05-05 14:43 35.33933 25.17212 91 ft 14 kts 95°
2026-05-05 14:44 35.33925 25.17323 91 ft 13 kts 95°
2026-05-05 14:44 35.33917 25.17425 91 ft 12 kts 95°
2026-05-05 14:44 35.33910 25.17519 93 ft 11 kts 94°
2026-05-05 14:44 35.33902 25.17603 91 ft 9 kts 112°
2026-05-05 14:45 35.33853 25.17623 93 ft 7 kts 180°
2026-05-05 14:45 35.33806 25.17618 91 ft 6 kts 185°
2026-05-05 14:45 35.33792 25.17587 92 ft 4 kts 283°
2026-05-05 14:45 35.33799 25.17550 92 ft 5 kts 286°
2026-05-05 14:46 35.33811 25.17538 91 ft 3 kts 326°
2026-05-05 14:46 35.33820 25.17529 91 ft 1 kts 321°
2026-05-05 14:46 35.33822 25.17527 91 ft 0 kts 322°